The ArtCat calendar is closed as of December 31, 2012. Please visit Filterizer for art recommendations.


ARTCAT

CALENDAR | HOSTING



Exhibibits at: Feature Inc

view more locations in East Village / Lower East Side

Pixel Richard Kern / Lilly Van Der Stokker (October 23 - December 11, 2004)
Pixel Jason Fox / Richard Rezac (January 8 - February 19, 2005)
Pixel Alexander Ross / Isabella Kirkland (March 5 - April 23, 2005)
Pixel David Moreno, Quietly Oscillating (July 14 - September 17, 2005) PICK
Pixel Meditative (July 14 - September 17, 2005) PICK
Pixel Tom Friedman, By Appointment Only (October 1 - October 29, 2005)
1641 1252006017.thumb Gary Batty, Drawings (January 7 - February 11, 2006)
Pixel Sam Gordon, Sketchbooks 95/05 and Thotographs (January 7 - February 11, 2006)
1640 1252006015.thumb Tracy Miller, Paintings (January 7 - February 11, 2006)
1863 1252006371.thumb Howard Johnson (February 18 - March 25, 2006)
1643 1252006019.thumb Lucky DeBellevue, Sculpture and Painting (February 18 - March 25, 2006) PICK
1644 1252006022.thumb Tyler Vlahovich, Paintings and Drawings (February 18 - March 25, 2006) PICK
1865 1252006376.thumb David Moreno (April 8 - May 13, 2006)
1864 1252006373.thumb Gina Magid: Don’t Be Afraid of the Dark (April 8 - May 13, 2006)
2053 1252007723.thumb Jesse Bransford (April 8 - May 13, 2006) PICK
1866 1252006378.thumb Ben Snead (May 20 - June 23, 2006)
1867 1252006380.thumb Josh Podoll (May 20 - June 23, 2006)
2405 1252008246.thumb B. Wurtz (July 13 - September 26, 2006)
Pixel Michael Banicki (July 13 - September 23, 2006)
2406 1252008248.thumb Lisa Beck (July 13 - September 26, 2006)
2942 1252009081.thumb Mamie Holst (September 30 - November 4, 2006)
2943 1252009083.thumb Kinke Kooi (September 30 - November 4, 2006)
2941 1252009079.thumb Jeff Ono (September 30 - November 4, 2006)
3872 1252010736.thumb Sam Gordon, Sketchbooks (January 13 - February 24, 2007)
3816 1252010632.thumb Tracy Miller (January 13 - February 17, 2007)
Pixel Toadhouse (January 13 - February 17, 2007)
3534 1252010161.thumb Bruce Brosnan (January 13 - February 17, 2007)
3531 1252010155.thumb Sam Gordon, Three Ways: painting, drawing, video (February 24 - March 31, 2007)
3532 1252010157.thumb Judy Linn (February 24 - March 31, 2007)
3533 1252010159.thumb Dike Blair (February 24 - March 31, 2007)
4500 1252011877.thumb Cary Smith, The Battle of Evermore (April 13 - May 19, 2007)
4501 1252011879.thumb Thoughts (April 13 - May 19, 2007) TOP PICK
4499 1252011875.thumb Nancy Shaver, Retail, sculpture and objects (April 14 - May 19, 2007) TOP PICK
4943 1252012751.thumb Huston Ripley, drawing (May 26 - June 29, 2007)
3537 1252010163.thumb Jesse Bransford, II = 260 (Mercurius) (May 26 - June 29, 2007)
4942 1252012749.thumb Dike Blair, sculpture (May 26 - June 29, 2007)
3970 1252010899.thumb John Torreano, Painting and Sculpture (July 12 - September 15, 2007)
6763 1252016896.thumb Daniel Hesidence, 1 7 7 9 / Pedestrians (April 1 - May 10, 2008) PICK
7898 1252018959.thumb Shit (September 10 - September 27, 2008)
7985 1252019130.thumb Richard Kern, Photographs (October 2 - November 1, 2008)
8222 1252019592.thumb Daniel Hesidence, 1779 / Pedestrians (November 6 - December 7, 2008)
8482 1252020111.thumb Mai Braun, Recent Object and Franck André Jamme and Toadhouse, text works (December 11 - December 27, 2008)
8557 1252020267.thumb Healing (January 3 - January 11, 2009)
8660 1252020483.thumb Alex Brown, Fodderland (January 15 - February 15, 2009)
8903 1252020954.thumb Populate This Form (February 19 - March 14, 2009)
9174 1252021483.thumb kinke kooi, Let Me Comfort You (March 28 - April 26, 2009)
9372 1252021906.thumb David Shaw, Inuverse (April 30 - May 30, 2009)
9670 1252031947.thumb Lisa Beck, To Everything (June 4 - June 28, 2009)
10766 1264015309.thumb Ben Snead: Recent Paintings (January 28 - February 27, 2010)
10930 1266612694.thumb Sue Gurnee: “The Fulgent Cadences” and “Tantra” (March 4 - March 27, 2010)
11146 1269621420.thumb Jesse Bransford, The Jungle (for Norma) — Works on Paper (April 8 - May 9, 2010)
11378 1272389283.thumb Power to the People (May 1 - May 1, 2010) PICK
11474 1273506515.thumb Bill Komoski – Recent Paintings (May 13 - June 13, 2010)
11669 1276389968.thumb Tom of Finland and then some (June 25 - July 31, 2010) PICK
11897 1282589054.thumb Nathaniel Robinson: Civil Twilight (September 2 - October 2, 2010)
12173 1285461367.thumb Richard Rezac: Recent Sculpture (October 7 - November 7, 2010)
12391 1288373810.thumb Andrew Masullo: Recent Paintings (November 11 - December 5, 2010)
12596 1291682036.thumb Todd Knopke: CEC (changing everything carefully) (December 9 - January 16, 2011)
12749 1294697100.thumb Tracy Miller: Food Paintings (January 19 - February 13, 2011)
12983 1296937972.thumb Gary Batt “drawing”; Cary Smith “Splat” (February 16 - March 13, 2011)
13332 1300202910.thumb 69-76, Photographs of Patti Smith by Judy Linn (March 16 - April 10, 2011)
13890 1305068015.thumb Upfront: Carl J. Ferrero (May 18 - June 18, 2011)
13846 1304697181 Isabella Kirkland: Nova Paintings (May 18 - June 18, 2011)
14167 1308156847.thumb i am not monogamous, i heart poetry (June 23 - August 6, 2011)
15036 1317740335.thumb David Moreno, Recent Works On Paper + Jerry Phillips, Phantom (October 5 - November 6, 2011)
15399 1320115682.thumb Nancy Shaver: Three sisters, four beauties and a work-horse (November 9 - December 17, 2011)
15816 1324954531.thumb “Anonymous Tantra Paintings” and “Connected” group show (January 7 - February 12, 2012) TOP PICK